SCP
0 0 0 0 0 0 0 0 0 0 0 0 0 0 0 0 0 0 0 0 0 1 1 1 0 0 1 0 0 0 0 0 0 0 0 -0 0 0 0 0 0 0 0
0 0 0 0 0 0 0 0 0 0 0 0 0 0 0 0 0 0 0 0 0 1 1 0 0 0 1 0 0 0 0 0 0 0 0 0 0 0 0 0 0 0 0
0 0 0 0 0 0 0 0 0 0 0 0 0 0 0 0 0 0 0 0 0 1 1 0 0 0 0 0 0 0 0 0 0 0 0 0 0 0 0 0 0 0 0
0 0 0 0 0 0 0 0 0 0 0 0 0 0 0 0 0 0 0 0 1 1 1 0 0 0 0 0 0 0 0 0 0 0 0 0 0 0 0 0 0 0 0
0 0 0 0 0 0 0 0 0 0 0 0 0 0 0 0 0 0 0 0 1 1 1 0 0 0 0 0 0 0 0 0 0 0 0 0 0 0 0 0 0 0 0
0 0 0 0 0 0 0 0 0 0 0 0 0 0 0 0 0 0 0 0 0 0 1 1 1 0 0 0 0 0 0 0 0 -0 0 0 0 0 0 0 0 0 0
0 0 0 0 0 0 0 0 0 0 0 0 0 0 0 0 0 0 0 0 0 0 0 1 1 0 0 0 0 0 -0 0 -0 0 0 0 0 0 -0 0 -0 -0 0
0 0 0 0 0 0 0 0 0 0 0 0 0 0 0 0 0 0 0 0 0 0 0 0 0 0 0 0 0 0 0 -0 0 0 0 0 0 -0 -0 -0 0 0 0
0 0 0 0 0 0 0 0 -0 0 0 0 0 0 0 0 0 0 0 0 0 0 0 0 0 0 0 0 0 0 0 0 -0 -0 0 -0 0 0 -0 0 0 0 0
0 0 0 0 0 0 0 0 0 0 0 0 0 0 0 0 0 0 0 0 0 0 0 0 0 0 0 0 0 0 0 -0 -0 -0 -0 0 0 -0 -0 0 0 0 -0
0 0 0 0 -0 0 0 0 0 0 0 0 0 0 0 0 0 0 0 0 0 0 0 0 0 0 0 0 0 0 0 0 0 -0 0 0 -0 -0 -0 0 0 0 0
0 -0 -0 0 -0 0 0 0 0 0 0 0 0 0 0 0 0 0 0 0 0 0 0 0 0 0 0 0 0 0 0 0 -0 0 -0 0 0 -0 0 0 0 0 -0
-0 -0 -0 -0 0 0 0 0 0 0 0 0 0 0 0 0 0 0 0 0 0 0 0 0 0 0 0 0 0 0 0 0 0 -0 0 0 0 0 0 0 0 0 0
-0 -0 -0 0 0 0 0 0 0 0 0 0 0 -0 0 0 0 0 0 0 0 0 0 0 0 0 0 0 0 0 0 0 0 0 0 0 0 0 0 0 0 0 0
-0 -0 -0 0 0 0 0 0 0 0 0 0 0 0 0 0 0 0 0 0 0 0 0 0 0 0 0 0 0 0 0 0 0 0 0 0 0 0 0 0 0 0 0
-0 -0 -0 0 0 0 0 0 0 0 0 0 0 0 0 0 0 0 0 0 0 0 0 0 0 0 0 0 0 0 0 0 0 -0 -0 0 0 -0 -0 -0 0 0 0
0 0 0 0 0 0 0 0 0 0 0 0 0 0 0 0 0 0 0 0 0 0 0 0 0 0 0 0 0 0 0 0 0 -0 0 0 0 0 -0 -0 0 0 0
0 0 0 0 0 0 0 0 0 0 0 0 0 0 -0 0 0 0 0 0 0 0 0 0 0 0 0 0 0 0 0 0 0 0 0 0 0 0 0 0 0 0 0
-0 -0 -0 0 0 0 0 0 0 0 0 0 0 0 0 0 0 0 0 0 0 0 0 0 0 0 0 0 0 0 0 0 0 0 0 0 0 0 -0 0 0 0 0
-0 -0 -0 0 0 0 0 0 0 0 0 0 0 0 0 0 0 0 0 0 -0 0 0 0 0 0 0 0 0 0 0 0 0 0 0 0 0 0 0 0 0 0 0
-0 -0 -0 -0 0 0 0 0 0 0 0 0 0 0 0 0 0 0 0 0 0 0 0 0 0 0 0 0 -0 0 0 0 0 0 0 0 0 0 0 0 0 0 0
-0 -0 -0 -0 -0 0 0 0 0 0 0 0 0 0 0 0 0 0 -0 -0 0 0 0 0 0 0 0 0 0 0 0 0 0 0 0 0 0 0 0 0 0 0 0
-0 -0 0 -0 0 0 0 0 0 0 0 0 0 0 0 0 0 0 -0 0 0 0 0 0 0 0 0 -0 -0 -0 -0 -0 0 0 0 0 0 0 0 0 0 0 0
-0 -0 0 0 0 -0 -0 -0 0 0 0 0 0 0 0 0 0 0 0 0 0 0 0 0 0 0 0 -0 -0 -0 -0 0 0 0 0 0 0 0 0 0 0 0 0
0 0 0 0 0 0 0 0 0 0 0 0 0 0 0 0 -0 0 0 0 0 0 0 0 0 0 -0 0 0 0 0 0 0 0 0 0 0 0 0 0 0 0 0
0 0 0 0 0 0 0 0 0 0 0 0 0 0 -0 -0 -0 0 0 0 0 0 0 0 0 -0 -0 -0 -0 -0 0 0 0 0 0 0 0 0 0 0 0 0 0
Wind_Speed_500mb
29 28 29 27 23 22 24 25 24 26 27 31 35 37 38 38 38 39 39 40 44 40 40 43 47 53 65 59 75 71 59 62 58 50 39 39 41 39 34 30 25 20 15
27 28 29 29 27 23 23 22 25 26 28 30 33 34 33 34 39 39 38 40 43 39 38 39 47 53 67 58 46 56 61 61 60 52 49 46 40 36 32 26 22 16 12
26 26 28 30 29 25 22 20 22 26 29 31 32 33 32 34 36 35 37 39 40 36 36 37 50 59 64 49 37 56 57 57 58 53 47 42 38 35 28 25 19 13 16
26 26 26 26 27 27 23 20 22 25 26 32 33 32 29 33 34 33 34 36 38 34 32 42 47 55 49 47 50 61 60 67 60 54 46 42 36 30 26 21 14 15 22
28 26 25 25 28 28 23 20 20 25 24 30 32 31 28 33 30 29 32 32 34 33 29 37 43 34 49 57 55 61 64 69 63 55 45 39 33 26 20 14 20 25 22
28 26 22 24 26 26 23 22 22 26 24 28 27 28 28 30 26 30 28 28 30 32 27 32 45 33 35 52 53 57 81 73 66 54 49 39 30 22 19 26 21 20 17
24 25 20 23 25 22 20 22 26 29 25 24 25 22 25 23 22 28 26 24 28 29 26 31 50 47 18 43 46 62 75 69 61 49 45 40 27 19 23 17 20 25 18
23 22 18 21 22 20 21 20 29 35 29 26 24 22 15 14 18 21 19 23 24 27 28 34 43 51 53 57 60 79 70 68 60 54 50 41 26 22 19 27 21 17 12
18 14 15 21 17 17 16 16 31 31 32 30 21 14 11 8 19 10 13 20 18 19 20 40 51 51 58 57 81 78 70 69 62 58 49 33 17 14 21 23 21 17 11
9 5 16 17 14 14 14 20 27 27 29 29 28 21 14 14 14 10 11 14 19 19 20 27 58 54 58 78 64 71 71 68 63 53 50 41 21 23 29 22 18 12 8
5 9 11 12 13 13 16 21 24 26 24 25 29 32 18 6 22 19 17 21 16 16 31 27 53 63 73 74 75 73 69 78 63 54 40 26 23 27 22 20 15 10 4
7 12 13 15 13 12 16 19 23 23 19 19 28 32 27 15 26 36 35 29 29 34 31 40 50 43 64 70 85 76 77 70 60 40 30 23 25 22 21 17 13 6 3
10 17 16 14 12 13 16 17 23 24 23 23 25 20 26 21 16 29 39 45 40 41 38 56 63 52 61 73 86 80 70 57 45 36 29 24 20 18 16 14 9 3 4
15 22 19 16 13 17 17 17 17 19 22 21 24 25 23 20 18 21 36 50 41 34 35 42 46 64 68 81 88 73 57 46 40 31 24 14 11 14 16 12 7 4 3
19 24 21 18 16 16 15 12 12 23 18 24 22 17 15 16 26 29 16 18 28 27 34 43 54 70 79 78 81 60 54 42 32 25 18 15 16 18 15 9 5 5 8
21 23 22 20 12 16 14 10 14 19 9 22 21 18 17 20 33 30 14 27 25 41 33 53 51 67 64 72 65 49 44 35 28 22 19 20 21 20 15 7 6 5 7
18 20 23 21 13 12 12 10 15 14 15 18 17 15 15 26 31 31 11 28 37 41 50 45 50 66 58 53 62 51 42 31 27 25 22 20 17 14 9 6 4 6 9
17 20 21 18 12 13 13 15 17 17 16 18 17 17 17 22 34 27 19 27 27 28 39 55 60 66 57 55 51 43 31 23 24 22 19 18 16 11 7 2 4 8 11
20 21 21 19 19 17 16 15 15 16 16 18 18 21 24 20 24 23 27 17 31 29 42 53 57 62 56 54 47 34 25 26 24 22 19 19 15 8 4 4 6 11 17
23 24 26 27 25 21 19 19 19 23 24 22 21 22 24 23 23 29 24 27 37 38 39 43 49 61 61 60 40 30 26 26 24 24 21 16 10 6 3 7 12 16 19
24 25 28 29 25 23 24 25 31 31 25 23 25 24 27 28 27 33 32 35 36 42 50 54 61 61 61 51 39 28 32 30 26 23 20 14 6 2 4 8 9 15 21
23 25 24 22 24 24 22 22 15 15 17 20 27 29 32 33 36 33 29 31 48 48 52 61 54 49 54 44 36 38 35 30 27 28 20 11 6 3 4 9 13 17 22
20 17 16 14 19 23 22 18 11 7 9 21 29 32 33 37 45 43 46 40 46 57 49 34 31 35 41 39 38 39 34 31 28 20 14 15 8 4 3 7 12 20 26
20 19 11 11 18 25 23 17 13 15 24 29 35 38 42 56 49 48 45 41 46 42 23 27 32 39 40 41 36 33 31 23 18 16 14 17 12 7 3 5 14 24 30
24 22 28 30 27 34 26 24 28 31 31 35 37 43 38 52 53 43 38 34 37 40 39 40 41 40 40 35 28 23 19 15 16 14 13 13 11 11 9 8 15 26 28
24 24 24 21 28 32 33 34 34 38 41 48 52 56 54 55 47 35 31 37 40 38 37 38 33 34 32 29 24 21 16 14 12 15 10 7 6 2 5 4 17 20 27
Wind_Direction_500mb
288 274 269 264 268 268 260 259 258 243 240 228 224 227 228 237 229 221 229 223 219 225 225 225 218 213 206 204 193 195 206 189 179 163 170 173 172 169 165 158 159 159 161
294 280 268 261 253 264 261 263 256 240 233 228 221 222 225 230 219 219 226 220 218 222 223 219 210 204 194 189 205 207 191 185 176 165 169 177 175 167 159 154 160 148 162
295 282 268 255 244 256 259 261 251 232 228 219 213 216 220 221 214 220 224 217 219 222 222 215 208 201 208 199 215 200 188 182 172 160 168 178 171 160 155 163 149 155 157
294 288 272 251 241 249 254 263 247 229 227 214 211 212 225 215 213 223 220 212 217 221 218 210 218 188 197 198 197 200 187 174 166 164 171 171 159 158 158 152 136 156 152
289 293 279 247 237 240 248 255 242 222 220 210 210 214 219 212 219 221 210 213 216 219 216 209 212 216 195 197 205 205 192 174 161 161 169 159 154 150 145 146 158 148 141
287 294 278 238 230 233 241 244 232 212 210 209 214 213 214 212 224 215 211 212 216 215 224 210 205 211 186 185 188 187 178 163 158 164 165 146 146 147 152 137 125 137 145
285 291 269 233 223 232 241 239 223 204 200 192 193 202 206 216 220 211 213 212 216 218 221 205 200 177 194 198 198 186 163 156 159 164 146 146 135 158 134 127 161 160 133
290 282 258 223 219 232 238 233 203 193 188 182 185 179 180 204 213 206 218 221 209 216 225 206 200 193 180 194 192 169 164 162 160 155 152 137 158 136 150 163 145 128 130
296 271 228 207 219 230 227 210 187 188 189 179 175 172 156 194 175 179 221 204 207 212 218 203 201 188 185 195 169 163 160 158 154 147 129 143 168 146 165 153 151 136 124
314 240 187 202 218 210 200 186 183 185 188 187 187 184 190 199 162 146 183 188 200 204 200 188 194 200 187 172 172 158 161 154 143 134 153 172 175 176 171 150 138 136 134
264 190 191 190 181 179 184 178 180 185 193 206 207 171 138 158 235 184 156 161 196 199 185 169 196 191 184 177 164 159 143 142 140 159 164 166 162 169 156 146 146 151 126
214 185 174 161 165 165 171 165 170 180 188 194 190 196 201 190 190 179 159 174 169 179 188 175 175 193 177 168 160 148 146 151 158 154 161 153 170 156 157 151 148 123 67
185 169 157 146 148 154 164 173 185 184 187 190 196 192 198 222 208 197 175 165 157 156 156 180 192 188 164 165 146 145 152 155 159 160 156 164 147 155 150 146 135 105 78
168 167 154 144 140 138 137 142 163 174 186 194 192 206 239 235 205 208 181 171 146 136 153 142 178 168 162 151 148 150 155 151 151 152 152 143 147 150 147 138 126 82 38
161 166 157 153 151 144 141 148 163 180 182 194 203 215 228 202 182 172 189 187 174 141 143 161 152 154 157 151 152 157 153 148 148 144 143 150 148 140 134 133 117 57 27
153 161 165 163 162 162 157 161 166 178 174 182 192 213 208 202 198 194 157 162 175 169 141 158 163 164 146 150 156 151 146 150 148 147 146 144 140 147 142 143 79 49 9
152 161 167 163 147 155 159 158 160 161 166 176 180 191 196 196 190 187 191 164 175 160 159 164 163 167 153 152 153 154 147 150 152 143 135 143 142 139 131 109 62 16 347
144 150 166 181 166 153 151 151 153 147 147 161 164 164 153 151 168 179 159 163 163 167 175 146 163 166 165 155 149 146 134 144 136 133 139 134 126 124 103 61 322 315 321
140 140 144 149 142 137 135 136 140 142 139 144 158 164 160 163 176 179 177 183 176 173 167 161 158 168 167 164 153 147 143 129 128 134 127 119 123 126 172 274 301 301 302
123 126 129 131 130 122 112 118 124 122 121 122 128 134 152 150 154 159 168 169 151 151 164 173 166 178 176 158 156 149 140 130 140 130 123 118 120 166 197 305 307 312 313
125 125 128 128 128 128 123 120 120 115 108 118 125 135 140 138 154 156 144 160 159 156 153 136 146 157 176 169 166 156 147 143 135 132 129 136 132 28 351 319 326 328 323
126 129 133 135 138 135 135 132 122 119 118 129 130 138 137 152 132 141 140 145 155 141 151 147 140 143 151 159 160 155 151 145 136 136 140 114 98 91 56 343 338 331 342
133 133 135 147 160 157 153 161 160 146 135 136 140 141 146 158 142 145 133 128 128 136 122 120 140 151 151 150 150 153 148 145 143 139 139 132 124 59 37 349 350 355 349
141 143 139 140 152 166 157 165 178 140 127 136 148 151 152 142 144 137 137 132 130 143 139 128 134 139 142 140 137 142 152 152 147 142 147 148 131 116 139 341 353 347 344
136 135 108 99 123 128 129 131 134 131 127 141 152 153 154 151 143 141 135 139 142 140 134 126 129 134 139 142 148 156 156 152 155 150 147 150 130 137 176 334 340 343 359
134 143 134 114 98 110 124 127 128 130 124 130 132 143 149 144 142 137 139 143 141 142 143 141 137 140 143 148 149 152 148 147 163 151 159 164 82 137 218 291 338 2 8
Wind_Speed_850mb
29 28 29 27 23 22 24 25 24 26 27 31 35 37 38 38 38 39 39 40 44 40 40 43 47 53 65 59 75 71 59 62 58 50 39 39 41 39 34 30 25 20 15
27 28 29 29 27 23 23 22 25 26 28 30 33 34 33 34 39 39 38 40 43 39 38 39 47 53 67 58 46 56 61 61 60 52 49 46 40 36 32 26 22 16 12
26 26 28 30 29 25 22 20 22 26 29 31 32 33 32 34 36 35 37 39 40 36 36 37 50 59 64 49 37 56 57 57 58 53 47 42 38 35 28 25 19 13 16
26 26 26 26 27 27 23 20 22 25 26 32 33 32 29 33 34 33 34 36 38 34 32 42 47 55 49 47 50 61 60 67 60 54 46 42 36 30 26 21 14 15 22
28 26 25 25 28 28 23 20 20 25 24 30 32 31 28 33 30 29 32 32 34 33 29 37 43 34 49 57 55 61 64 69 63 55 45 39 33 26 20 14 20 25 22
28 26 22 24 26 26 23 22 22 26 24 28 27 28 28 30 26 30 28 28 30 32 27 32 45 33 35 52 53 57 81 73 66 54 49 39 30 22 19 26 21 20 17
24 25 20 23 25 22 20 22 26 29 25 24 25 22 25 23 22 28 26 24 28 29 26 31 50 47 18 43 46 62 75 69 61 49 45 40 27 19 23 17 20 25 18
23 22 18 21 22 20 21 20 29 35 29 26 24 22 15 14 18 21 19 23 24 27 28 34 43 51 53 57 60 79 70 68 60 54 50 41 26 22 19 27 21 17 12
18 14 15 21 17 17 16 16 31 31 32 30 21 14 11 8 19 10 13 20 18 19 20 40 51 51 58 57 81 78 70 69 62 58 49 33 17 14 21 23 21 17 11
9 5 16 17 14 14 14 20 27 27 29 29 28 21 14 14 14 10 11 14 19 19 20 27 58 54 58 78 64 71 71 68 63 53 50 41 21 23 29 22 18 12 8
5 9 11 12 13 13 16 21 24 26 24 25 29 32 18 6 22 19 17 21 16 16 31 27 53 63 73 74 75 73 69 78 63 54 40 26 23 27 22 20 15 10 4
7 12 13 15 13 12 16 19 23 23 19 19 28 32 27 15 26 36 35 29 29 34 31 40 50 43 64 70 85 76 77 70 60 40 30 23 25 22 21 17 13 6 3
10 17 16 14 12 13 16 17 23 24 23 23 25 20 26 21 16 29 39 45 40 41 38 56 63 52 61 73 86 80 70 57 45 36 29 24 20 18 16 14 9 3 4
15 22 19 16 13 17 17 17 17 19 22 21 24 25 23 20 18 21 36 50 41 34 35 42 46 64 68 81 88 73 57 46 40 31 24 14 11 14 16 12 7 4 3
19 24 21 18 16 16 15 12 12 23 18 24 22 17 15 16 26 29 16 18 28 27 34 43 54 70 79 78 81 60 54 42 32 25 18 15 16 18 15 9 5 5 8
21 23 22 20 12 16 14 10 14 19 9 22 21 18 17 20 33 30 14 27 25 41 33 53 51 67 64 72 65 49 44 35 28 22 19 20 21 20 15 7 6 5 7
18 20 23 21 13 12 12 10 15 14 15 18 17 15 15 26 31 31 11 28 37 41 50 45 50 66 58 53 62 51 42 31 27 25 22 20 17 14 9 6 4 6 9
17 20 21 18 12 13 13 15 17 17 16 18 17 17 17 22 34 27 19 27 27 28 39 55 60 66 57 55 51 43 31 23 24 22 19 18 16 11 7 2 4 8 11
20 21 21 19 19 17 16 15 15 16 16 18 18 21 24 20 24 23 27 17 31 29 42 53 57 62 56 54 47 34 25 26 24 22 19 19 15 8 4 4 6 11 17
23 24 26 27 25 21 19 19 19 23 24 22 21 22 24 23 23 29 24 27 37 38 39 43 49 61 61 60 40 30 26 26 24 24 21 16 10 6 3 7 12 16 19
24 25 28 29 25 23 24 25 31 31 25 23 25 24 27 28 27 33 32 35 36 42 50 54 61 61 61 51 39 28 32 30 26 23 20 14 6 2 4 8 9 15 21
23 25 24 22 24 24 22 22 15 15 17 20 27 29 32 33 36 33 29 31 48 48 52 61 54 49 54 44 36 38 35 30 27 28 20 11 6 3 4 9 13 17 22
20 17 16 14 19 23 22 18 11 7 9 21 29 32 33 37 45 43 46 40 46 57 49 34 31 35 41 39 38 39 34 31 28 20 14 15 8 4 3 7 12 20 26
20 19 11 11 18 25 23 17 13 15 24 29 35 38 42 56 49 48 45 41 46 42 23 27 32 39 40 41 36 33 31 23 18 16 14 17 12 7 3 5 14 24 30
24 22 28 30 27 34 26 24 28 31 31 35 37 43 38 52 53 43 38 34 37 40 39 40 41 40 40 35 28 23 19 15 16 14 13 13 11 11 9 8 15 26 28
24 24 24 21 28 32 33 34 34 38 41 48 52 56 54 55 47 35 31 37 40 38 37 38 33 34 32 29 24 21 16 14 12 15 10 7 6 2 5 4 17 20 27
Wind_Direction_850mb
288 274 269 264 268 268 260 259 258 243 240 228 224 227 228 237 229 221 229 223 219 225 225 225 218 213 206 204 193 195 206 189 179 163 170 173 172 169 165 158 159 159 161
294 280 268 261 253 264 261 263 256 240 233 228 221 222 225 230 219 219 226 220 218 222 223 219 210 204 194 189 205 207 191 185 176 165 169 177 175 167 159 154 160 148 162
295 282 268 255 244 256 259 261 251 232 228 219 213 216 220 221 214 220 224 217 219 222 222 215 208 201 208 199 215 200 188 182 172 160 168 178 171 160 155 163 149 155 157
294 288 272 251 241 249 254 263 247 229 227 214 211 212 225 215 213 223 220 212 217 221 218 210 218 188 197 198 197 200 187 174 166 164 171 171 159 158 158 152 136 156 152
289 293 279 247 237 240 248 255 242 222 220 210 210 214 219 212 219 221 210 213 216 219 216 209 212 216 195 197 205 205 192 174 161 161 169 159 154 150 145 146 158 148 141
287 294 278 238 230 233 241 244 232 212 210 209 214 213 214 212 224 215 211 212 216 215 224 210 205 211 186 185 188 187 178 163 158 164 165 146 146 147 152 137 125 137 145
285 291 269 233 223 232 241 239 223 204 200 192 193 202 206 216 220 211 213 212 216 218 221 205 200 177 194 198 198 186 163 156 159 164 146 146 135 158 134 127 161 160 133
290 282 258 223 219 232 238 233 203 193 188 182 185 179 180 204 213 206 218 221 209 216 225 206 200 193 180 194 192 169 164 162 160 155 152 137 158 136 150 163 145 128 130
296 271 228 207 219 230 227 210 187 188 189 179 175 172 156 194 175 179 221 204 207 212 218 203 201 188 185 195 169 163 160 158 154 147 129 143 168 146 165 153 151 136 124
314 240 187 202 218 210 200 186 183 185 188 187 187 184 190 199 162 146 183 188 200 204 200 188 194 200 187 172 172 158 161 154 143 134 153 172 175 176 171 150 138 136 134
264 190 191 190 181 179 184 178 180 185 193 206 207 171 138 158 235 184 156 161 196 199 185 169 196 191 184 177 164 159 143 142 140 159 164 166 162 169 156 146 146 151 126
214 185 174 161 165 165 171 165 170 180 188 194 190 196 201 190 190 179 159 174 169 179 188 175 175 193 177 168 160 148 146 151 158 154 161 153 170 156 157 151 148 123 67
185 169 157 146 148 154 164 173 185 184 187 190 196 192 198 222 208 197 175 165 157 156 156 180 192 188 164 165 146 145 152 155 159 160 156 164 147 155 150 146 135 105 78
168 167 154 144 140 138 137 142 163 174 186 194 192 206 239 235 205 208 181 171 146 136 153 142 178 168 162 151 148 150 155 151 151 152 152 143 147 150 147 138 126 82 38
161 166 157 153 151 144 141 148 163 180 182 194 203 215 228 202 182 172 189 187 174 141 143 161 152 154 157 151 152 157 153 148 148 144 143 150 148 140 134 133 117 57 27
153 161 165 163 162 162 157 161 166 178 174 182 192 213 208 202 198 194 157 162 175 169 141 158 163 164 146 150 156 151 146 150 148 147 146 144 140 147 142 143 79 49 9
152 161 167 163 147 155 159 158 160 161 166 176 180 191 196 196 190 187 191 164 175 160 159 164 163 167 153 152 153 154 147 150 152 143 135 143 142 139 131 109 62 16 347
144 150 166 181 166 153 151 151 153 147 147 161 164 164 153 151 168 179 159 163 163 167 175 146 163 166 165 155 149 146 134 144 136 133 139 134 126 124 103 61 322 315 321
140 140 144 149 142 137 135 136 140 142 139 144 158 164 160 163 176 179 177 183 176 173 167 161 158 168 167 164 153 147 143 129 128 134 127 119 123 126 172 274 301 301 302
123 126 129 131 130 122 112 118 124 122 121 122 128 134 152 150 154 159 168 169 151 151 164 173 166 178 176 158 156 149 140 130 140 130 123 118 120 166 197 305 307 312 313
125 125 128 128 128 128 123 120 120 115 108 118 125 135 140 138 154 156 144 160 159 156 153 136 146 157 176 169 166 156 147 143 135 132 129 136 132 28 351 319 326 328 323
126 129 133 135 138 135 135 132 122 119 118 129 130 138 137 152 132 141 140 145 155 141 151 147 140 143 151 159 160 155 151 145 136 136 140 114 98 91 56 343 338 331 342
133 133 135 147 160 157 153 161 160 146 135 136 140 141 146 158 142 145 133 128 128 136 122 120 140 151 151 150 150 153 148 145 143 139 139 132 124 59 37 349 350 355 349
141 143 139 140 152 166 157 165 178 140 127 136 148 151 152 142 144 137 137 132 130 143 139 128 134 139 142 140 137 142 152 152 147 142 147 148 131 116 139 341 353 347 344
136 135 108 99 123 128 129 131 134 131 127 141 152 153 154 151 143 141 135 139 142 140 134 126 129 134 139 142 148 156 156 152 155 150 147 150 130 137 176 334 340 343 359
134 143 134 114 98 110 124 127 128 130 124 130 132 143 149 144 142 137 139 143 141 142 143 141 137 140 143 148 149 152 148 147 163 151 159 164 82 137 218 291 338 2 8